www.pogodaiklimat.ru

Погода и климат >> Архив погоды >> Россия >> Якутия >> Джалинда


АРХИВ ПОГОДЫ в Джалинде

Время (UTC), дата Ветер
(напр.,м/с)
 
Видим.   Явления Облачность Т
(С)
Тd
(С)
f
(%)
Тe
(С)
Тes
(С)
Комфортность P
(гПа)
Po
(гПа)
Тmin
(С)
Tmax
(С)
R
(мм)
R24
(мм)
S
(см)
06 9.01 штиль 0 50 км 4/0
[Ci sp]
-43.5 -45.7 79 -44 -44 опасность
обморожения
1007.5 998.2
09 9.01 штиль 0 50 км 3/0
[Ci sp]
-41.8 -43.8 81 -42 -42 опасность
обморожения
1008.2 999.0
12 9.01 штиль 0 50 км 3/0
[Ci sp]
-41.9 -43.8 82 -42 -42 опасность
обморожения
1008.8 999.5 -41.8
15 9.01 штиль 0 50 км ясно -42.4 -44.4 81 -42 -42 опасность
обморожения
1010.2 1000.9
18 9.01 штиль 0 50 км ясно -42.9 -45.0 80 -43 -43 опасность
обморожения
1011.2 1001.9
21 9.01 штиль 0 50 км ясно -44.3 -46.4 79 -44 -44 опасность
обморожения
1011.2 1001.9
00 10.01 штиль 0 50 км ясно -44.7 -46.4 83 -45 -45 опасность
обморожения
1011.9 1002.6 -44.7 26
03 10.01 штиль 0 50 км ясно -44.5 -46.4 81 -45 -45 опасность
обморожения
1011.9 1002.6
06 10.01 штиль 0 50 км 10/0
[Cs]
-42.6 -45.0 77 -43 -43 опасность
обморожения
1012.0 1002.7
09 10.01 штиль 0 50 км 8/0
[Ci sp]
-46.1 -48.1 80 -46 -46 опасность
обморожения
1013.1 1003.8
12 10.01 штиль 0 50 км 4/0
[Ci sp]
-43.1 -45.0 81 -43 -43 опасность
обморожения
1013.5 1004.2 -42.6
15 10.01 штиль 0 50 км ясно -44.6 -46.4 82 -45 -45 опасность
обморожения
1013.5 1004.2
18 10.01 штиль 0 50 км ясно -45.7 -48.1 76 -46 -46 опасность
обморожения
1013.2 1003.9
21 10.01 штиль 0 50 км ясно -45.7 -48.1 76 -46 -46 опасность
обморожения
1012.4 1003.1
00 11.01 штиль 0 50 км ясно -46.4 -48.1 83 -46 -46 опасность
обморожения
1012.0 1002.7 -46.4 26
03 11.01 штиль 0 50 км ясно -46.7 -49.0 77 -47 -47 опасность
обморожения
1012.5 1003.1
06 11.01 штиль 0 50 км ясно -46.7 -49.0 77 -47 -47 опасность
обморожения
1011.9 1002.5
09 11.01 штиль 0 50 км ясно -47.9 -50.0 79 -48 -48 опасность
обморожения
1012.5 1003.0
12 11.01 штиль 0 50 км ясно -46.8 -49.0 78 -47 -47 опасность
обморожения
1013.0 1003.5 -46.7
15 11.01 штиль 0 50 км ясно -45.5 -47.2 83 -46 -46 опасность
обморожения
1012.3 1003.0
18 11.01 штиль 0 50 км ясно -44.6 -46.4 82 -45 -45 опасность
обморожения
1012.3 1003.0
21 11.01 штиль 0 50 км ясно -45.7 -48.1 76 -46 -46 опасность
обморожения
1013.8 1004.5
00 12.01 штиль 0 50 км ясно -45.5 -47.2 83 -46 -46 опасность
обморожения
1014.7 1005.3 -45.7 26
03 12.01 штиль 0 50 км ясно -46.6 -49.0 76 -47 -47 опасность
обморожения
1016.2 1006.6
06 12.01 штиль 0 50 км ясно -47.2 -49.0 82 -47 -47 опасность
обморожения
1018.5 1008.9
09 12.01 штиль 0 50 км ясно -48.4 -50.0 83 -48 -48 опасность
обморожения
1019.5 1009.9
12 12.01 штиль 0 50 км ясно -49.4 -51.2 81 -49 -49 опасность
обморожения
1021.1 1011.5 -46.5
15 12.01 штиль 0 50 км ясно -49.7 -51.2 84 -50 -50 опасность
обморожения
1021.9 1012.3
18 12.01 штиль 0 50 км ясно -51.0 -52.5 84 -51 -51 опасность
обморожения
1022.7 1013.1
21 12.01 штиль 0 50 км ясно -51.9 -54.1 77 -52 -52 опасность
обморожения
1026.5 1016.6
00 13.01 штиль 0 50 км ясно -52.9 -54.1 87 -53 -53 опасность
обморожения
1027.9 1018.0 -52.9 26
03 13.01 штиль 0 50 км ясно -53.7 -55.9 77 -54 -54 опасность
обморожения
1029.3 1019.4
06 13.01 штиль 0 50 км ясно -53.9 -55.9 78 -54 -54 опасность
обморожения
1030.3 1020.4
09 13.01 штиль 0 50 км ясно -54.3 -55.9 82 -54 -54 опасность
обморожения
1032.2 1022.3
12 13.01 штиль 0 50 км ясно -54.3 -55.9 82 -54 -54 опасность
обморожения
1033.3 1023.4 -53.7
15 13.01 штиль 0 50 км ясно -54.5 -55.9 84 -55 -55 опасность
обморожения
1033.8 1023.9
18 13.01 штиль 0 50 км ясно -54.8 -55.9 87 -55 -55 опасность
обморожения
1034.7 1024.8
21 13.01 штиль 0 50 км ясно -54.6 -55.9 85 -55 -55 опасность
обморожения
1033.8 1023.9
00 14.01 штиль 0 50 км ясно -54.6 -55.9 85 -55 -55 опасность
обморожения
1033.5 1023.6 -54.8 26
03 14.01 штиль 0 50 км ясно -53.3 -55.9 73 -53 -53 опасность
обморожения
1033.7 1023.8
06 14.01 штиль 0 50 км ясно -53.3 -55.9 73 -53 -53 опасность
обморожения
1033.4 1023.5
09 14.01 штиль 0 50 км ясно -53.3 -55.9 73 -53 -53 опасность
обморожения
1034.3 1024.4
12 14.01 штиль 0 50 км ясно -52.8 -54.1 86 -53 -53 опасность
обморожения
1033.9 1024.0 -52.8
15 14.01 штиль 0 50 км ясно -52.9 -54.1 87 -53 -53 опасность
обморожения
1033.9 1024.0
18 14.01 штиль 0 50 км ясно -52.6 -54.1 84 -53 -53 опасность
обморожения
1033.9 1024.0
21 14.01 штиль 0 50 км ясно -52.2 -54.1 80 -52 -52 опасность
обморожения
1034.7 1024.8
00 15.01 штиль 0 50 км ясно -52.0 -54.1 78 -52 -52 опасность
обморожения
1033.7 1023.8 -52.9 26
03 15.01 штиль 0 50 км ясно -51.7 -54.1 75 -52 -52 опасность
обморожения
1031.8 1021.9
06 15.01 штиль 0 50 км ясно -51.0 -52.5 84 -51 -51 опасность
обморожения
1030.7 1021.0
09 15.01 ЮВ 3 50 км ясно -50.2 -52.5 76 -64 -64 опасность
обморожения
1029.9 1020.2
12 15.01 ЮВ 3 50 км ясно -50.2 -52.5 76 -64 -64 опасность
обморожения
1029.9 1020.2
15 15.01 штиль 0 50 км ясно -49.7 -51.2 84 -50 -50 опасность
обморожения
1028.3 1018.6 -49.7
18 15.01 штиль 0 50 км ясно -48.7 -51.2 75 -49 -49 опасность
обморожения
1025.2 1015.5
21 15.01 штиль 0 50 км ясно -45.1 -47.2 79 -45 -45 опасность
обморожения
1019.9 1010.5
00 16.01 штиль 0 50 км ясно -39.5 -41.7 79 -40 -40 опасность
обморожения
1016.3 1007.1 -48.7 26
03 16.01 Ю 5 50 км 10/10 600 м
[Sc]
-28.4 -30.2 84 -41 -41 опасность
обморожения
1012.2 1003.5

 

Местоположение метеостанции Джалинда (Якутия, Россия): широта 70.13 долгота 113.90 высота над уровнем моря 62 м.

В архиве по умолчанию представлена погода в Джалинде за последнюю неделю. Архивные данные за месяц целиком и за предыдущие месяцы, начиная с января 2011 года, Вы можете получить, выбрав интересующий диапазон дат из раскрывающегося списка и нажав кнопку "Ввод!".


*Определитесь, кто Вы:
робот инопланетянин человек

Внимание! Время в таблицах - всемирное. Для получения местного времени необходимо прибавить поправку, которая равна 9 ч.

Смотрите также архив погоды в соседних городах и на ближайших метеорологических станциях:

Погода в Оленеке (Якутия, Россия) (191 км)
Погода в Саскылахе (Якутия, Россия) (205 км)
Погода в Сухане (Якутия, Россия) (241 км)
Погода в Анабаре (Якутия, Россия) (344 км)
Погода на Усть-Оленеке (Якутия, Россия) (380 км)
Погода в Полярном (Якутия, Россия) (383 км)
Погода в Ярольине (Якутия, Россия) (399 км)
Погода в Тюмяти (Якутия, Россия) (400 км)
Погода в Джарджане (Якутия, Россия) (424 км)
Погода в Шелагонцах (Якутия, Россия) (432 км)

Пояснения к столбцам:

Ветер - указаны скорость ветра в м/с - средняя за 10 мин, порывы в срок и между сроками (в фигурных скобках) и направление, откуда дует ветер: С - северный, СВ - северо-восточный, В - восточный, ЮВ - юго-восточный, Ю - южный, ЮЗ - юго-западный, З - западный, СЗ - северо-западный.
Видимость - горизонтальная дальность видимости в метрах или километрах. При видимости от 1 до 10 км при отсутствии осадков обычно наблюдается дымка, при ухудшении видимости до 1 км и менее - туман. В сухую погоду видимость может ухудшаться дымом, пылью или мглою.
Явления - указаны атмосферные явления, наблюдавшиеся в срок или в последний час перед сроком; фигурными скобками обозначены явления, наблюдавшиеся между сроками (за 1-3 часа до срока); квадратными скобками обозначены град или гололедные отложения с указанием их диаметра в мм.
Облачность - указаны через наклонную черту общая и нижняя облачность в баллах и высота нижней границы облаков в метрах; квадратными скобками обозначены формы облаков: Ci - перистые, Cs - перисто-слоистые, Cc - перисто-кучевые, Ac - высококучевые, As - высокослоистые, Sc - слоисто-кучевые, Ns - слоисто-дождевые, Cu - кучевые, Cb - кучево-дождевые. Подробнее классификацию облаков см. в Атласе облаков (PDF).
T - Температура воздуха - температура, измеренная на высоте 2 м над землей.
Td - Температура точки росы - температура, при понижении до которой содержащийся в воздухе водяной пар достигнет насыщения.
f - Относительная влажность воздуха - влажноcть воздуха, измеренная на высоте 2 м над землей.
Te - Эффективная температура - температура, которую ощущает одетый по сезону человек в тени. Характеристика душности погоды. При расчете учитывается влияние влажности воздуха и скорости ветра на теплоощущения человека.
Tes - Эффективная температура на солнце - температура, которую ощущает человек, с поправкой на солнечный нагрев. Характеристика знойности погоды. Зависит от высоты солнца над горизонтом, облачности и скорости ветра. Ночью, в пасмурную погоду, а также при ветре 12 м/с и более поправка равна нулю.
P - Атмосферное давление - приведенное к уровню моря атмосферное давление.
Po - Атмосферное давление - измеренное на уровне метеостанции атмосферное давление.
Tmin - Минимальная температура - минимум температуры воздуха на высоте 2 м над землей.
Tmax - Максимальная температура - максимум температуры воздуха на высоте 2 м над землей.
R - Количество осадков - Количество выпавших осадков за период времени, мм. При наведении курсора мыши на число - период времени, за который выпало указанное количество осадков.
R24 - Количество осадков - Количество выпавших осадков за 24 часа, мм.
S - Снежный покров - Высота снежного покрова, см. При наведении курсора мыши на число - состояние снежного покрова и степень покрытия местности в баллах.